User: anonymous   Login
Location: Caltech
(34.1382°N, 118.1253°W)
Time: 00:58:22
(UTC-07:00)
Language:

Aureole 3 Rocket - Orbit

View from above orbital plane
View from above orbital plane
View from above satellite
View from above satellite

Ground track
Ground track

The orbit data is extracted from the following two-line orbital elements,

1 12849U 81094B   16179.84890122  .00000152  00000-0  13547-4 0  9996
2 12849  82.4943  78.6097 0903137 287.6006  62.8548 13.49860354694112
Epoch (UTC): 27 June 2016 20:22:25
Eccentricity: 0.0903137
inclination: 82.4943°
perigee height: 400 km
apogee height: 1745 km
right ascension of ascending node: 78.6097°
argument of perigee: 287.6006°
revolutions per day: 13.49860354
mean anomaly at epoch: 62.8548°
orbit number at epoch: 69411

The dashed part of the orbit path shows where the satellite is in the earth's shadow,  

DLR